sat.trackr.live / text

‹ back to catalog

STARLINK-36270

NORAD 67200 · 2025-304J

PAYLOAD ACTIVE UNKNOWN

§ Identity

Operator
Country
US
Launch date
2025-12-17
Launch site
AFWTR
Launch vehicle
Mass (kg)
RCS (m²)

Purposes: comms

External: N2YO · Heavens-Above · Gunter

§ Orbital elements

Epoch: 2026-05-24T23:33:49.551264Z

Period
96.11 min
Inclination
70.0021°
Eccentricity
0.0002459
Mean motion
14.98337541 rev/d
Perigee alt
570.3 km
Apogee alt
573.7 km
Semi-major
6,950.2 km
B*
1.9444e-4
RAAN
342.0573°
Arg perigee
268.5080°
Mean anomaly
91.5797°
Rev number
2,531

§ Raw data

STARLINK-362701 67200U 25304J   26144.98182351  .00002228  00000+0  19444-3 0  99912 67200  70.0021 342.0573 0002459 268.5080  91.5797 14.98337541 25314

JSON: /api/v1/satellites/67200 · /tle

For live sub-satellite position, see the globe view (requires WebGL).

§ Visibility from observer

Set your observer location to see the next 7 days of passes ≥ 10°. The values pass through the URL so the page stays shareable.

No JS? Fill the form by hand. The geolocation button needs JavaScript.